Location: Franzen
(48.6167°N, 15.3833°E)
Time: 06:35:40
(UTC+00:00)

Transit 2A - Pass Details

Date: 12 August 2021
Orbit: 594 x 964 km, 66.7° (Epoch: 24 September)

Event Time Altitude Azimuth Distance (km) Brightness Sun altitude
Rises 04:07:14 0° 248° (WSW) 2,891 8.3 2.2°
Reaches altitude 10° 04:09:40 10° 260° (W) 2,025 7.6 2.5°
Maximum altitude 04:13:39 29° 321° (NW) 1,231 7.0 3.2°
Drops below altitude 10° 04:17:59 10° 22° (NNE) 2,207 9.1 3.8°
Sets 04:20:45 0° 33° (NNE) 3,200 10.1 4.3°
